Location: Area 52 Observatory
(34.2620°N, 119.2590°W)
Time: 13:28:47
(UTC-07:00)

Tiangong 2 - Pass Details

Date: 22 March 2019
Orbit: 378 x 390 km, 42.8° (Epoch: 23 April)

Event Time Altitude Azimuth Distance (km) Brightness Sun altitude
Exits shadow 05:24:51 39° 354° (N) 593 2.0 -19.9°
Maximum altitude 05:25:21 42° 23° (NNE) 553 2.1 -19.8°
Drops below altitude 10° 05:28:23 10° 96° (E) 1,400 4.9 -19.2°
Sets 05:30:31 0° 104° (ESE) 2,254 6.0 -18.8°
